When you browse on this site, cookies collect data to enhance your experience and personalize the content and advertising you see.
Visit our Privacy Policy to learn more. By continuing to use the site, you agree to this use of cookies and data.
  • In United Kingdom
  • List of Countries
  • For 7 days
  • Water Temperature
  • Weather Map
  • Weather Widgets
  • user-avatar
    Login

    Hourly Weather Escaldes-Engordany

    Today, 25 May, Monday

    Time Temperature Precipitation Wind Pressure Humidity
    00:00 +10°C° 0 mm 0 mps 645 mmHg 95%
    01:00 +10°C° 0 mm 0 mps 645 mmHg 95%
    02:00 +10°C° 0 mm 0 mps 645 mmHg 95%
    03:00 +10°C° 0 mm 0 mps 645 mmHg 95%
    04:00 +11°C° 0 mm 0 mps 645 mmHg 93%
    05:00 +11°C° 0 mm 0 mps 645 mmHg 91%
    06:00 +13°C° 0 mm 1 mps 646 mmHg 87%
    07:00 +15°C° 0 mm 1 mps 646 mmHg 79%
    08:00 +16°C° 0 mm 1 mps 647 mmHg 72%
    09:00 +19°C° 0 mm 1 mps 648 mmHg 64%
    10:00 +19°C° 0.3 mm 1 mps 647 mmHg 65%
    11:00 +19°C° 0.3 mm 1 mps 647 mmHg 66%
    12:00 +19°C° 0.3 mm 1 mps 647 mmHg 67%
    13:00 +19°C° 0.8 mm 1 mps 647 mmHg 68%
    14:00 +19°C° 0.8 mm 1 mps 647 mmHg 70%
    15:00 +19°C° 0.8 mm 1 mps 646 mmHg 71%
    16:00 +18°C° 0.5 mm 1 mps 646 mmHg 74%
    17:00 +16°C° 0.5 mm 1 mps 646 mmHg 78%
    18:00 +15°C° 0.5 mm 1 mps 645 mmHg 81%
    19:00 +14°C° 0 mm 1 mps 645 mmHg 85%
    20:00 +12°C° 0 mm 1 mps 645 mmHg 89%
    21:00 +11°C° 0 mm 1 mps 645 mmHg 93%
    22:00 +10°C° 0 mm 1 mps 645 mmHg 91%
    23:00 +10°C° 0 mm 1 mps 645 mmHg 89%

    Tomorrow, 26 May, Tuesday

    Time Temperature Precipitation Wind Pressure Humidity
    00:00 +10°C° 0 mm 1 mps 645 mmHg 87%
    01:00 +9°C° 0 mm 1 mps 644 mmHg 84%
    02:00 +9°C° 0 mm 1 mps 644 mmHg 82%
    03:00 +9°C° 0 mm 1 mps 644 mmHg 80%
    04:00 +10°C° 0 mm 1 mps 644 mmHg 76%
    05:00 +11°C° 0 mm 1 mps 645 mmHg 72%
    06:00 +12°C° 0 mm 1 mps 645 mmHg 67%
    07:00 +14°C° 0 mm 1 mps 646 mmHg 60%
    08:00 +18°C° 0 mm 1 mps 647 mmHg 52%
    09:00 +20°C° 0 mm 1 mps 648 mmHg 44%
    10:00 +21°C° 0 mm 1 mps 648 mmHg 43%
    11:00 +22°C° 0 mm 1 mps 648 mmHg 41%
    12:00 +23°C° 0 mm 2 mps 648 mmHg 39%
    13:00 +23°C° 0 mm 2 mps 648 mmHg 44%
    14:00 +21°C° 0 mm 2 mps 648 mmHg 48%
    15:00 +21°C° 0 mm 2 mps 647 mmHg 53%
    16:00 +19°C° 0.2 mm 2 mps 647 mmHg 63%
    17:00 +18°C° 0.2 mm 2 mps 646 mmHg 73%
    18:00 +16°C° 0.2 mm 2 mps 645 mmHg 83%
    19:00 +15°C° 0 mm 1 mps 645 mmHg 85%
    20:00 +13°C° 0 mm 1 mps 645 mmHg 88%
    21:00 +12°C° 0 mm 1 mps 645 mmHg 90%
    22:00 +11°C° 0 mm 1 mps 645 mmHg 84%
    23:00 +10°C° 0 mm 1 mps 644 mmHg 77%

    Day after tomorrow, 27 May, Wednesday

    Time Temperature Precipitation Wind Pressure Humidity
    00:00 +9°C° 0 mm 2 mps 644 mmHg 71%
    01:00 +8°C° 0 mm 2 mps 644 mmHg 67%
    02:00 +9°C° 0 mm 1 mps 644 mmHg 63%
    03:00 +9°C° 0 mm 1 mps 643 mmHg 60%
    04:00 +10°C° 0 mm 1 mps 644 mmHg 59%
    05:00 +11°C° 0 mm 1 mps 644 mmHg 59%
    06:00 +12°C° 0 mm 1 mps 645 mmHg 58%
    07:00 +14°C° 0 mm 1 mps 646 mmHg 52%
    08:00 +18°C° 0 mm 1 mps 647 mmHg 45%
    09:00 +20°C° 0 mm 1 mps 648 mmHg 38%
    10:00 +21°C° 0 mm 1 mps 648 mmHg 38%
    11:00 +20°C° 0 mm 2 mps 648 mmHg 38%
    12:00 +21°C° 0 mm 2 mps 648 mmHg 37%
    13:00 +20°C° 0.1 mm 2 mps 648 mmHg 45%
    14:00 +19°C° 0.1 mm 2 mps 647 mmHg 53%
    15:00 +18°C° 0.1 mm 2 mps 647 mmHg 61%
    16:00 +18°C° 0.3 mm 1 mps 646 mmHg 69%
    17:00 +16°C° 0.3 mm 1 mps 646 mmHg 76%
    18:00 +15°C° 0.3 mm 1 mps 645 mmHg 84%
    19:00 +14°C° 0.1 mm 1 mps 645 mmHg 87%
    20:00 +13°C° 0.1 mm 1 mps 645 mmHg 90%
    21:00 +12°C° 0.1 mm 0 mps 645 mmHg 93%
    22:00 +11°C° 0 mm 0 mps 645 mmHg 93%
    23:00 +11°C° 0 mm 0 mps 645 mmHg 93%

    28 May, Thursday

    Time Temperature Precipitation Wind Pressure Humidity
    00:00 +10°C° 0 mm 0 mps 644 mmHg 94%
    01:00 +10°C° 0 mm 0 mps 644 mmHg 93%
    02:00 +11°C° 0 mm 1 mps 644 mmHg 93%
    03:00 +10°C° 0 mm 1 mps 644 mmHg 92%
    04:00 +11°C° 0 mm 1 mps 644 mmHg 91%
    05:00 +11°C° 0 mm 0 mps 644 mmHg 89%
    06:00 +11°C° 0 mm 0 mps 644 mmHg 87%
    07:00 +14°C° 0 mm 1 mps 645 mmHg 76%
    08:00 +16°C° 0 mm 1 mps 645 mmHg 65%
    09:00 +19°C° 0 mm 1 mps 646 mmHg 55%
    10:00 +20°C° 0.1 mm 1 mps 646 mmHg 54%
    11:00 +20°C° 0.1 mm 1 mps 646 mmHg 53%
    12:00 +20°C° 0.1 mm 2 mps 645 mmHg 52%
    13:00 +19°C° 0.6 mm 2 mps 645 mmHg 57%
    14:00 +19°C° 0.6 mm 1 mps 644 mmHg 63%
    15:00 +18°C° 0.6 mm 1 mps 644 mmHg 69%
    16:00 +18°C° 0.6 mm 1 mps 643 mmHg 73%
    17:00 +16°C° 0.6 mm 1 mps 643 mmHg 77%
    18:00 +16°C° 0.6 mm 1 mps 642 mmHg 80%
    19:00 +14°C° 0 mm 1 mps 642 mmHg 84%
    20:00 +13°C° 0 mm 1 mps 642 mmHg 88%
    21:00 +11°C° 0 mm 1 mps 641 mmHg 92%
    22:00 +11°C° 0 mm 1 mps 641 mmHg 90%
    23:00 +11°C° 0 mm 1 mps 641 mmHg 88%

    29 May, Friday

    Time Temperature Precipitation Wind Pressure Humidity
    00:00 +10°C° 0 mm 1 mps 640 mmHg 86%
    01:00 +10°C° 0 mm 1 mps 640 mmHg 81%
    02:00 +10°C° 0 mm 1 mps 640 mmHg 76%
    03:00 +9°C° 0 mm 1 mps 639 mmHg 71%
    04:00 +10°C° 0 mm 1 mps 639 mmHg 69%
    05:00 +11°C° 0 mm 1 mps 640 mmHg 67%
    06:00 +12°C° 0 mm 1 mps 640 mmHg 65%
    07:00 +15°C° 0 mm 1 mps 641 mmHg 56%
    08:00 +18°C° 0 mm 1 mps 641 mmHg 47%
    09:00 +21°C° 0 mm 1 mps 642 mmHg 38%
    10:00 +22°C° 0 mm 1 mps 642 mmHg 37%
    11:00 +22°C° 0 mm 1 mps 642 mmHg 35%
    12:00 +23°C° 0 mm 2 mps 642 mmHg 33%
    13:00 +23°C° 0 mm 2 mps 642 mmHg 37%
    14:00 +23°C° 0 mm 2 mps 641 mmHg 40%
    15:00 +21°C° 0 mm 2 mps 641 mmHg 43%
    16:00 +20°C° 0.3 mm 2 mps 640 mmHg 52%
    17:00 +19°C° 0.3 mm 2 mps 640 mmHg 62%
    18:00 +18°C° 0.3 mm 1 mps 639 mmHg 71%
    19:00 +15°C° 0.1 mm 1 mps 639 mmHg 77%
    20:00 +14°C° 0.1 mm 1 mps 638 mmHg 84%
    21:00 +12°C° 0.1 mm 1 mps 638 mmHg 90%
    22:00 +11°C° 0 mm 1 mps 638 mmHg 87%
    23:00 +11°C° 0 mm 1 mps 637 mmHg 85%

    30 May, Saturday

    Time Temperature Precipitation Wind Pressure Humidity
    00:00 +10°C° 0 mm 2 mps 637 mmHg 83%
    01:00 +9°C° 0 mm 2 mps 637 mmHg 80%
    02:00 +9°C° 0 mm 2 mps 637 mmHg 78%
    03:00 +9°C° 0 mm 2 mps 637 mmHg 75%
    04:00 +10°C° 0 mm 2 mps 637 mmHg 73%
    05:00 +12°C° 0 mm 1 mps 638 mmHg 70%
    06:00 +13°C° 0 mm 1 mps 638 mmHg 67%
    07:00 +15°C° 0 mm 1 mps 639 mmHg 58%
    08:00 +19°C° 0 mm 1 mps 640 mmHg 48%
    09:00 +21°C° 0 mm 1 mps 640 mmHg 39%
    10:00 +22°C° 0 mm 1 mps 641 mmHg 38%
    11:00 +23°C° 0 mm 1 mps 641 mmHg 36%
    12:00 +24°C° 0 mm 2 mps 641 mmHg 35%
    13:00 +23°C° 0.1 mm 2 mps 641 mmHg 39%
    14:00 +23°C° 0.1 mm 2 mps 640 mmHg 44%
    15:00 +21°C° 0.1 mm 2 mps 640 mmHg 48%
    16:00 +20°C° 0.7 mm 2 mps 639 mmHg 59%
    17:00 +19°C° 0.7 mm 1 mps 639 mmHg 71%
    18:00 +16°C° 0.7 mm 1 mps 638 mmHg 82%
    19:00 +15°C° 0.7 mm 1 mps 638 mmHg 86%
    20:00 +14°C° 0.7 mm 1 mps 638 mmHg 89%
    21:00 +12°C° 0.7 mm 1 mps 638 mmHg 93%
    22:00 +12°C° 0.2 mm 1 mps 638 mmHg 93%
    23:00 +12°C° 0.2 mm 1 mps 638 mmHg 93%
    Show more